Regional Weather Roundup
Issued by NWS

Home | Current Version | Previous Version | Graphics & Text | Print | Product List | Glossary On
Versions: 1 2 3 4 5 6 7 8 9 10 11 12 13 14 15 16 17 18 19 20 21 22 23 24 25 26 27 28 29 30 31 32 33 34 35 36 37 38 39 40 41 42 43 44 45 46 47 48 49 50
000
ASUS43 KIND 240309
RWRIN

WEATHER ROUNDUP FOR INDIANA
NATIONAL WEATHER SERVICE INDIANAPOLIS IN
1100 PM EDT SAT SEP 23 2017

NOTE: "FAIR" INDICATES FEW OR NO CLOUDS BELOW 12,000 FEET WITH NO
SIGNIFICANT WEATHER AND/OR OBSTRUCTIONS TO VISIBILITY.

* - STATION DOES NOT REPORT WEATHER SUCH AS PRECIPITATION OR FOG.

+ - STATION NOT QUALITY CONTROLLED BY THE NATIONAL WEATHER SERVICE.
    USE DATA WITH CAUTION...ESPECIALLY DEWPOINT AND RELATIVE
    HUMIDITY OBSERVATIONS.

INZ001>003-010>013-019-020-240400-
NORTHWEST INDIANA

CITY           SKY/WX    TMP DP  RH WIND       PRES   REMARKS
GARY /AIRPORT/ CLEAR     70  66  88 CALM      30.07R
KNOX *+        CLEAR     70  64  83 CALM      30.07S
LA PORTE +     CLEAR     69  65  90 E3        30.09S
MICHIGAN CITY+ CLEAR     72  64  78 CALM      30.08S
MONTICELLO +   CLEAR     72  68  87 CALM      30.06S
RENSSELAER +   CLEAR     72  61  68 E5        30.07R
VALPARAISO     CLEAR     74  66  76 E3        30.08R

$$

LMZ046-743>745-240400-
SOUTHERN LAKE MICHIGAN

STATION/POSITION TIME  TEMP    WIND        PRES    WAVE
                       AIR SEA DIR/SP/G            HT
                 (UTC) (F)     (DEG/KT/KT) (MB)    (FT)
BURNS HARBOR     0240   84     140/  8/ 15 1018.3R
MICHIGAN CITY    0240   78     120/  6/  8   N/A
5NW MICH CITY    0300   76 73  140/  4/  6   N/A     0

$$

INZ004-005-014>016-021>024-240400-
NORTH CENTRAL INDIANA

CITY           SKY/WX    TMP DP  RH WIND       PRES   REMARKS
GOSHEN         CLEAR     70  64  81 CALM      30.10R
LOGANSPORT +   CLEAR     68  63  83 CALM      30.08S
PERU/GRISSOM   CLEAR     75  63  67 CALM      30.07R
SOUTH BEND     CLEAR     73  66  78 CALM      30.09S
WARSAW +       CLEAR     70  66  88 CALM      30.10R

$$

INZ006>009-017-018-025>027-240400-
NORTHEAST INDIANA

CITY           SKY/WX    TMP DP  RH WIND       PRES   REMARKS
AUBURN +       CLEAR     72  61  68 E3        30.11S
FORT WAYNE     CLEAR     69  62  78 E3        30.11R
HUNTINGTON +   CLEAR     70  63  77 CALM      30.09S
KENDALLVILLE + CLEAR     73  64  73 E5        30.12S

$$

INZ028-029-035-036-043>045-051>053-240400-
WEST CENTRAL INDIANA

CITY           SKY/WX    TMP DP  RH WIND       PRES   REMARKS
GREENCASTLE +  CLEAR     70  63  78 CALM      30.07F
LAFAYETTE      CLEAR     71  67  87 CALM      30.05S
TERRE HAUTE    CLEAR     68  62  81 CALM      30.05S

$$

INZ030>032-037>040-046>048-054>057-064-065-240400-
CENTRAL INDIANA

CITY           SKY/WX    TMP DP  RH WIND       PRES   REMARKS
CP ATTERBURY + CLEAR     66  64  94 CALM      30.07F
FISHERS *+     CLEAR     68  66  94 CALM      30.08S
FRANKFORT +    CLEAR     70  67  89 CALM      30.09S
GREENWOOD *+   CLEAR     72  68  89 CALM      30.08S
INDIANAPOLIS   CLEAR     78  62  57 SE3       30.07S
-EAGLE CREEK   CLEAR     75  63  66 CALM      30.06F
KOKOMO +       CLEAR     71  65  81 E3        30.09R
MARION +       CLEAR     72  63  73 E6        30.10S
MT COMFORT *+  CLEAR     66  64  94 CALM      30.08F
SHELBYVILLE    CLEAR     69  63  81 E3        30.07S
ZIONSVILLE +   CLEAR     67  65  94 CALM      30.09S

$$

INZ033-034-041-042-049-050-058-059-240400-
EAST CENTRAL INDIANA

CITY           SKY/WX    TMP DP  RH WIND       PRES   REMARKS
MUNCIE         CLEAR     68  64  87 SE3       30.09S
RICHMOND +     RAIN      66  61  82 E6        30.11S

$$

INZ060-061-067>069-081>083-085>088-240400-
SOUTHWEST INDIANA

CITY           SKY/WX    TMP DP  RH WIND       PRES   REMARKS
EVANSVILLE     CLEAR     71  65  81 CALM      30.04S
HUNTINGBURG +  CLEAR     69  66  90 NE3       30.05R
WASHINGTON +   CLEAR     68  65  91 CALM      30.04S

$$

INZ062-063-066-070>080-084-089>092-240400-
SOUTH CENTRAL AND SOUTHEAST INDIANA

CITY           SKY/WX    TMP DP  RH WIND       PRES   REMARKS
BEDFORD +      CLEAR     70  63  78 CALM      30.06S
BLOOMINGTON    CLEAR     69  61  75 CALM      30.06F
MADISON *+     CLEAR     68  64  88 CALM      30.09S
NORTH VERNON + CLEAR     64  64 100 E3        30.08S
SEYMOUR +      CLEAR     68  64  88 CALM      30.06S

$$





USA.gov is the U.S. government's official web portal to all federal, state and local government web resources and services.